Orbital Elements at Epoch 2459200.5 (2020-Dec-17.0) TDB
Reference: JPL 15 (heliocentric ecliptic J2000)
Element | Value | Uncertainty (1-sigma) | Units |
e | .1426726311382309 | 7.3839e-08 | |
a | 2.27546438364543 | 1.1852e-08 | au |
q | 1.950817892969404 | 1.655e-07 | au |
i | 23.95493380929708 | 7.2893e-06 | deg |
node | 239.0308673804098 | 1.4471e-05 | deg |
peri | 23.65829942094733 | 2.4128e-05 | deg |
M | 184.4467386302134 | 2.3439e-05 | deg |
tp | 2459811.878118974808 (2022-Aug-20.37811897) | 8.5044e-05 | TDB |
period | 1253.728475982675 3.43 | 9.7956e-06 2.682e-08 | d yr |
n | .2871435138440412 | 2.2435e-09 | deg/d |
Q | 2.600110874321456 | 1.3543e-08 | au |
|
| | Orbit Determination Parameters
Additional Information
|